Tracking 30160 objects as of 14-Feb-2025
HD Live streaming from Space Station
objects crossing your sky now

CZ-4 DEB

Track CZ-4 DEB now!
10-day predictions


NORAD ID: 20891
Int'l Code: 1990-081BB
Perigee: 863.8 km
Apogee: 1,180.0 km
Inclination: 99.0 °
Period: 105.4 minutes
Semi major axis: 7392 km
RCS: 0.0314 m2 (small)
Launch date: September 3, 1990
Source: People's Republic of China (PRC)
Launch site: Taiyaun Space Center, China (TSC)

Note: This is SATELLITE DEBRIS
Your satellite tracking list
Your tracking list is empty




NASA's NSSDC Master Catalog

Two Line Element Set (TLE):
1 20891U 90081BB  25044.13464184  .00000322  00000-0  37654-3 0  9999
2 20891  99.0476 102.1153 0213835  96.3851 292.6356 13.65772532709295
Source of the keplerian elements: AFSPC